Veribest, TX

1:32 PM CDT on August 26, 2016 (GMT -0500)
San Angelo Regional-Mathis

Weather History for KSJT - September, 2013

Change the Weather History Date:

Thursday, September 5, 2013

  Actual Average Record
Temperature  
Mean Temperature 82 °F 79 °F  
Max Temperature 94 °F 91 °F 106 °F (2000)
Min Temperature 70 °F 67 °F 49 °F (1915)
Degree Days  
Heating Degree Days 0 0  
Month to date heating degree days 0 0  
Since 1 July heating degree days 0 0  
Cooling Degree Days 17 14  
Month to date cooling degree days 93 73  
Year to date cooling degree days 2419 2109  
Growing Degree Days 32 (Base 50)    
Moisture  
Dew Point 62 °F    
Average Humidity 53    
Maximum Humidity 73    
Minimum Humidity 33    
Precipitation  
Precipitation 0.09 in 0.09 in 2.97 in (1986)
Month to date precipitation 0.22 0.45  
Year to date precipitation 11.98 14.52  
Sea Level Pressure  
Sea Level Pressure 30.02 in    
Wind  
Wind Speed 4 mph (SSE)    
Max Wind Speed 24 mph    
Max Gust Speed 31 mph    
Visibility 10 miles    
Events Rain    
T = Trace of Precipitation, MM = Missing Value Source: NWS Daily Summary

Daily Weather History Graph

Daily Weather History Graph

Search for Another Location

Airport or City:

Trip Planner

Search our weather history database for the weather conditions in past years. The results will help you decide how hot, cold, wet, or windy it might be!

Date:

Astronomy

Sep. 05, 2013 Rise Set
Actual Time 7:20 AM CDT 8:00 PM CDT
Civil Twilight 6:55 AM CDT 8:24 PM CDT
Nautical Twilight 6:26 AM CDT 8:53 PM CDT
Astronomical Twilight 5:57 AM CDT 9:22 PM CDT
Moon 7:29 AM CDT (9/5) 7:59 PM CDT (9/5)
Length of Visible Light 13h 28m
Length of Day
12h 39m
New Moon, 0% of the Moon is Illuminated
Sep 5
New Moon
Sep 12
First Quarter
Sep 19
Full
Sep 26
Last Quarter
Oct 4
New

Hourly Weather History & Observations

Time (CDT) Temp. Heat Index Dew Point Humidity Pressure Visibility Wind Dir Wind Speed Gust Speed Precip Events Conditions
12:51 AM 80.1 °F 80.4 °F 57.0 °F 45% 30.00 in 10.0 mi West 5.8 mph - N/A   Clear
1:51 AM 75.9 °F - 57.0 °F 52% 30.00 in 10.0 mi Calm Calm - N/A   Clear
2:51 AM 75.0 °F - 57.9 °F 55% 30.00 in 10.0 mi SW 3.5 mph - N/A   Clear
3:51 AM 72.0 °F - 59.0 °F 64% 30.01 in 10.0 mi SSE 5.8 mph - N/A   Clear
4:51 AM 72.0 °F - 60.1 °F 66% 30.01 in 10.0 mi SSW 4.6 mph - N/A   Clear
5:51 AM 71.1 °F - 59.0 °F 66% 30.03 in 10.0 mi South 3.5 mph - N/A   Clear
6:51 AM 71.1 °F - 60.1 °F 68% 30.04 in 10.0 mi SSW 4.6 mph - N/A   Mostly Cloudy
7:51 AM 71.1 °F - 62.1 °F 73% 30.06 in 10.0 mi South 4.6 mph - N/A   Clear
8:51 AM 75.9 °F - 63.0 °F 64% 30.07 in 10.0 mi SSW 3.5 mph - N/A   Clear
9:51 AM 81.0 °F 82.7 °F 64.9 °F 58% 30.08 in 10.0 mi SSW 3.5 mph - N/A   Clear
10:51 AM 86.0 °F 87.6 °F 64.9 °F 49% 30.09 in 10.0 mi Calm Calm - N/A   Clear
11:51 AM 90.0 °F 91.7 °F 64.9 °F 43% 30.08 in 10.0 mi Variable 3.5 mph - N/A   Clear
12:51 PM 91.0 °F 92.6 °F 64.0 °F 41% 30.05 in 10.0 mi East 3.5 mph - N/A   Partly Cloudy
1:51 PM 91.9 °F 93.3 °F 64.0 °F 39% 30.04 in 10.0 mi Variable 5.8 mph - N/A   Mostly Cloudy
2:51 PM 84.9 °F 88.8 °F 69.1 °F 59% 30.03 in 10.0 mi WNW 3.5 mph - 0.09 in Rain Light Rain
3:51 PM 88.0 °F 91.4 °F 68.0 °F 51% 30.01 in 10.0 mi Calm Calm - 0.00 in   Clear
4:51 PM 91.9 °F 92.9 °F 63.0 °F 38% 29.98 in 10.0 mi Variable 4.6 mph - N/A   Clear
5:51 PM 93.9 °F 94.0 °F 61.0 °F 33% 29.98 in 10.0 mi ESE 8.1 mph - N/A   Clear
6:51 PM 91.9 °F 91.2 °F 59.0 °F 33% 29.98 in 10.0 mi East 12.7 mph - N/A   Clear
7:51 PM 89.1 °F 89.3 °F 62.1 °F 40% 29.99 in 10.0 mi SE 9.2 mph - N/A   Clear
8:51 PM 84.9 °F 87.1 °F 66.0 °F 53% 30.01 in 10.0 mi ESE 5.8 mph - N/A   Clear
9:51 PM 82.9 °F 85.0 °F 66.0 °F 56% 30.02 in 10.0 mi SE 5.8 mph - N/A   Clear
10:51 PM 81.0 °F 83.3 °F 66.9 °F 62% 30.04 in 10.0 mi East 5.8 mph - N/A   Clear
11:51 PM 81.0 °F 83.0 °F 66.0 °F 60% 30.03 in 10.0 mi Calm Calm - N/A   Clear